Weather in Yogyakarta

Indonesia     7°47′48″S   110°21′52″E
temp.,
°C
wind,
m/s
gust,
m/s
humid.,
%
clouds,
%
prec.,
mm/h
press.,
hPa
HPBL,
m
25 july, sun
sun2501:00+21nw11915 0.0 101320
04:00+20nnw119411 0.0 101217
07:00+22n118513 0.0 101484
10:00+28sse346144 0.0 10141270
13:00+30sse44497 0.0 10111631
16:00+28sse55604 0.0 1010920
19:00+22ne01830 0.0 101215
22:00+21wnw11875 0.0 101319
26 july, mon
mon2601:00+20nw228921 0.0 101228
04:00+19n229274 0.0 101132
07:00+22nw11836 0.0 101287
10:00+29s21535 0.0 1013965
13:00+31s324210 0.0 10091617
16:00+28s44635 0.0 1009694
19:00+22ssw118745 0.0 101118
22:00+22nnw118955 0.0 101313
27 july, tue
tue2701:00+23nnw118660 0.0 101129
04:00+23ene118156 0.0 101117
07:00+23ne12796 0.0 1013107
10:00+29se22534 0.0 10131253
13:00+32sse334494 0.0 10091905
16:00+28s4563100 0.0 1009793
19:00+23s128645 0.0 101160
22:00+23nw018476 0.0 1013143
28 july, wed
wed2801:00+23wsw118560 0.0 101177
04:00+22ssw1187100 0.0 101151
07:00+23ssw018359 0.0 1013107
10:00+28se236093 0.0 10121320
13:00+31s544945 0.1 10091678
16:00+27sse556353 0.0 10101020
19:00+23s127968 0.0 1012173
22:00+23nnw127892 0.0 1013188
29 july, thu
thu2901:00+22nne118272 0.0 101224
04:00+23n118179 0.1 101227
07:00+24ene138498 0.2 1013263
10:00+28sse236649 0.2 10131050
13:00+29s335589 0.3 10101373
16:00+28s556422 0.0 1009945
19:00+23sse128960 0.1 1012105
22:00+23nne119366 0.5 101314